STARLINK-1895 (47175 NORAD) Tracking and Keplerian Element Data

This shows tracking and keplerian element data for the satellite.

Feedback or suggestion? Click here.




ElementValue
Catalog47175
NameSTARLINK-1895
Epoch Orbit865
Epoch Day16.16667824
Epoch Year2021
RAAN97.3669
Inclination53.0546
Eccentricity0.0001326
Argument of Perigee48.51
Mean Anonmoly306.612
Mean Motion15.627387
Decay Rate0.00060126
L11 47175U 20088BF 21016.16667824 .00060126 00000-0 65801-3 0 9990
L22 47175 53.0546 97.3669 0001326 48.5100 306.6120 15.62738700 8655

Live tracking and technical data element details for STARLINK-1895 (NORAD 47175). STARLINK-1895 can be tracked NOW for your location showing map with azimuth and elevation plus other details from your city location.

Track the satellite on the map from your city or location and see movement details for azimuth, elevation, latitude, longitude, range, height, and movement on the map or in text.







IsCatalogInMostPopularTable: catalog: 47175, numindb: 22
Update: records affected: 1



GetName: 47175 STARLINK-1895

Hit Count: updated at: Sun, 17 Jan 2021 08:41:38 GMT